{"data":{"norad_id":55458,"epoch":"2026-09-20T10:23:31.956864Z","epoch_age_seconds":105911,"freshness":"FRESH","line1":"1 55458U 23015K   26263.43300876 -.00000422  00000+0 -58028-5 0  9995","line2":"2 55458  43.0027 309.0737 0001053 275.0696  85.0035 15.27573403200503","mean_motion":15.27573403,"eccentricity":0.0001053,"inclination_deg":43.0027,"raan_deg":309.0737,"arg_perigee_deg":275.0696,"mean_anomaly_deg":85.0035,"bstar":-5.8028e-6,"rev_number":20050,"period_min":94.26715581536,"perigee_km":482.34636492601,"apogee_km":483.791334878,"semimajor_km":6861.205849902,"source":"CELESTRAK","updated_at":"2026-09-21T09:00:33.227830Z"}}